weather.gov     
National Weather Service

Regional Weather Roundup
NWS Homepage
This page is being discontinued on March 12, 2014.
The same data is available at this site. Please update your bookmarks.
Thank you, and we apologize for the inconvenience.
Please send an email to SR-SRH.Webmaster@noaa.gov with any concerns.


Current Version
Previous Version:    01  02  03  04  05  06  07  08  09  10  11  12  13  14  15  16  17  18  19  20  21  22  23  24  25  26  
[Printable]
207
ASUS44 KBMX 251210
RWRAL

ALABAMA REGIONAL WEATHER ROUNDUP
NATIONAL WEATHER SERVICE BIRMINGHAM AL
700 AM CDT FRI JUL 25 2014

NOTE: "FAIR" INDICATES FEW OR NO CLOUDS BELOW 12,000 FEET
WITH NO SIGNIFICANT WEATHER AND/OR OBSTRUCTIONS TO VISIBILITY.

THE REMARK "TC" DENOTES TEMPERATURE IN DEGREES CELSIUS.

ALZ001>011-014-016>018-020-251300-
NORTH ALABAMA

CITY           SKY/WX    TMP DP  RH WIND       PRES   REMARKS
MUSCLE SHOALS  MOSUNNY   68  63  84 CALM      30.07R
6HR MIN TEMP:  62; 6HR MAX TEMP:  68;

HUNTSVILLE     MOSUNNY   69  65  86 CALM      30.06R
6HR MIN TEMP:  66; 6HR MAX TEMP:  69;

DECATUR        PTSUNNY   67  65  93 NE5       30.07R FOG
6HR MIN TEMP:  62; 6HR MAX TEMP:  67; 6HR PCP:  0.01;

HALEYVILLE     FAIR      62  62 100 CALM      30.09R
6HR MIN TEMP:  60; 6HR MAX TEMP:  64;

GADSDEN        SUNNY     66  64  94 CALM      30.04R
6HR MIN TEMP:  64; 6HR MAX TEMP:  70;

$$

ALZ012-013-022-023-030>036-040>044-251300-
WEST CENTRAL ALABAMA

CITY           SKY/WX    TMP DP  RH WIND       PRES   REMARKS
TUSCALOOSA     SUNNY     69  66  90 CALM      30.03R
6HR MIN TEMP:  66; 6HR MAX TEMP:  73;

$$

ALZ015-024>027-033>036-040>044-251300-
CENTRAL ALABAMA

CITY           SKY/WX    TMP DP  RH WIND       PRES   REMARKS
BIRMINGHAM     PTSUNNY   69  66  90 CALM      30.05R
6HR MIN TEMP:  67; 6HR MAX TEMP:  72;

MONTGOMERY     SUNNY     76  73  91 SW5       30.01R FOG
6HR MIN TEMP:  75; 6HR MAX TEMP:  78; 6HR PCP: TRACE;

SHELBY CO ARPT SUNNY     71  69  93 N3        30.04R FOG
6HR MIN TEMP:  69; 6HR MAX TEMP:  73;

MAXWELL AFB    SUNNY     75  75 100 VRB1      30.01R
6HR MIN TEMP:  73; 6HR MAX TEMP:  76;

GREENVILLE     FAIR      75  72  90 CALM      30.02R FOG
6HR MIN TEMP:  73; 6HR MAX TEMP:  76;

$$

ALZ019-021-028-029-037-038-045>048-251300-
EAST CENTRAL ALABAMA

CITY           SKY/WX    TMP DP  RH WIND       PRES   REMARKS
ANNISTON       FOG       70  69  97 CALM      30.04R VSB 1/4
6HR MIN TEMP:  69; 6HR MAX TEMP:  72;

ALEXANDER CITY SUNNY     76  71  85 CALM      30.04S HAZE
6HR MIN TEMP:  76; 6HR MAX TEMP:  77;

AUBURN         SUNNY     72  70  94 S5        30.06S
6HR MIN TEMP:  72; 6HR MAX TEMP:  73;

$$

ALZ051>064-251300-
SOUTHWEST ALABAMA

CITY           SKY/WX    TMP DP  RH WIND       PRES   REMARKS
MOBILE         PTCLDY    73  73 100 CALM      30.02R
6HR MIN TEMP:  71; 6HR MAX TEMP:  74;

BROOKLEY FIELD MOSUNNY   75  74  96 CALM      30.01S
6HR MIN TEMP:  73; 6HR MAX TEMP:  78;

EVERGREEN      MOSUNNY   73  71  93 S3        30.03R FOG
6HR MIN TEMP:  72; 6HR MAX TEMP:  75;

$$

ALZ049-050-065>069-251300-
SOUTHEAST ALABAMA

CITY           SKY/WX    TMP DP  RH WIND       PRES   REMARKS
DOTHAN         SUNNY     75  73  93 CALM      30.08R
6HR MIN TEMP:  74; 6HR MAX TEMP:  77;

OZARK          SUNNY     74  73  97 CALM      30.04R
6HR MIN TEMP:  73; 6HR MAX TEMP:  75;

TROY           SUNNY     74  72  93 S5        30.03S FOG
6HR MIN TEMP:  74; 6HR MAX TEMP:  76;

EUFAULA        FAIR      76  73  91 CALM      30.02R
6HR MIN TEMP:  73; 6HR MAX TEMP:  78;

$$




U.S. Dept. of Commerce
NOAA National Weather Service
1325 East West Highway
Silver Spring, MD 20910
E-mail: w-nws.webmaster@noaa.gov
Page last modified: May 16, 2007
NATIONAL WEATHER SERVICE: for Safety, for Work, for Fun - FOR LIFE